Temperature
11 11 11 11 11 11 11 11 11 11 11 11 11 11 11 11 11 11 11 11 11 11 11 11 11 11 11 11 11 11 11 11 11 11 11 11 11 11 11 10 10 10 10
11 11 11 11 11 11 11 11 11 11 10 10 10 10 10 11 11 11 11 11 11 11 11 11 11 10 10 10 10 10 10 10 10 10 10 10 10 10 10 10 10 10 10
10 10 11 11 11 11 11 11 10 10 10 10 10 10 10 10 10 10 10 10 10 10 10 10 10 10 10 10 10 10 10 10 10 10 10 10 10 9 9 9 9 9 9
10 10 10 10 10 10 10 10 10 10 10 10 9 9 9 10 10 10 10 10 10 10 10 10 10 10 10 9 9 9 9 9 9 9 9 9 9 9 9 9 8 8 8
10 10 10 10 10 10 10 10 10 10 10 9 9 9 9 9 9 9 9 9 10 10 10 10 10 10 9 9 9 9 9 9 9 9 9 9 9 8 8 8 8 8 8
9 9 9 9 9 9 9 9 9 9 9 9 9 9 9 9 9 9 9 9 9 9 9 9 9 9 9 9 9 9 8 8 8 8 8 8 8 8 8 7 7 7 7
9 9 9 9 9 9 9 9 9 9 9 8 8 8 8 8 8 9 8 9 9 9 9 9 9 9 9 9 9 8 8 8 8 8 8 8 7 7 7 7 7 7 7
8 8 8 8 9 8 8 9 9 8 8 8 8 8 7 7 8 8 8 8 8 9 9 9 9 8 8 8 8 8 8 8 8 7 7 7 7 6 6 6 6 6 6
8 8 8 8 8 8 8 8 8 8 8 8 8 7 7 7 7 7 8 8 8 8 8 8 8 8 8 8 8 8 8 8 7 7 7 6 6 6 6 6 6 6 6
8 8 8 8 8 8 8 8 8 8 8 8 8 8 8 7 7 6 7 7 7 8 8 8 8 8 8 8 7 7 7 7 7 7 6 6 6 6 6 5 5 5 5
7 7 7 7 7 7 7 7 7 7 7 7 7 7 7 7 8 7 6 7 7 7 7 7 7 7 7 7 7 7 7 7 7 6 6 6 6 5 5 5 5 5 5
7 7 7 7 7 7 7 7 7 7 7 7 7 7 7 7 7 7 7 7 6 7 7 7 7 7 7 7 7 7 7 6 6 6 6 5 5 5 5 5 5 5 4
7 7 7 7 7 7 7 7 7 6 6 6 7 7 7 7 7 7 7 6 6 6 6 6 7 6 6 6 6 6 6 6 6 6 6 5 5 5 5 5 4 4 4
6 6 6 6 6 6 6 6 6 6 6 6 6 6 6 6 6 6 6 6 6 6 6 6 6 6 6 6 6 6 6 6 6 5 5 5 5 5 5 4 4 4 4
6 6 6 6 6 6 6 6 6 6 6 6 6 6 6 6 6 6 6 6 6 5 5 5 6 6 6 6 6 5 5 5 5 5 5 5 5 4 4 4 4 4 4
5 6 6 6 6 6 6 5 5 5 5 5 5 5 6 6 6 6 6 6 6 5 5 5 5 5 5 5 5 5 5 5 5 5 4 4 4 4 4 4 4 4 3
5 5 5 5 5 5 5 5 5 5 5 5 5 5 5 5 5 5 5 5 5 5 5 5 5 5 4 4 4 4 4 4 4 4 4 4 4 4 4 3 3 3 3
5 5 5 5 5 5 5 5 5 5 5 5 5 5 5 5 5 5 5 5 5 5 5 4 4 4 4 4 4 4 4 3 3 4 4 4 3 3 3 3 3 3 3
5 5 5 5 5 5 5 5 5 5 5 5 5 5 5 5 5 5 4 4 4 4 4 4 4 4 3 3 3 3 3 3 3 3 3 3 3 3 3 2 2 2 2
4 4 4 4 4 4 4 4 4 4 4 4 4 4 4 4 4 4 4 4 4 4 4 3 3 3 3 3 3 2 2 3 3 2 2 2 2 2 2 2 2 2 1
4 4 4 4 4 4 4 4 4 4 4 4 4 4 4 4 4 4 4 4 3 3 3 3 3 2 2 2 2 2 2 2 2 2 2 2 2 2 2 1 1 1 1
3 3 3 3 3 3 3 3 3 3 3 3 3 3 3 3 3 3 3 3 3 3 3 2 2 2 2 2 2 2 1 1 1 1 1 1 1 1 1 1 1 1 0
3 3 3 3 2 3 3 3 3 3 3 3 3 2 2 3 3 3 2 2 2 2 2 2 2 2 2 2 1 1 1 1 1 1 1 1 0 0 0 0 0 -0 -0
2 2 2 2 2 2 2 2 2 2 2 2 2 2 2 2 2 2 2 2 2 2 2 2 1 1 1 1 1 1 0 0 -0 -0 -0 -0 -0 -0 -0 -0 -0 -1 -1
1 1 1 1 1 2 2 1 1 1 1 1 1 1 1 1 1 1 1 1 1 1 1 1 1 0 0 0 0 0 -0 -1 -1 -1 -1 -1 -1 -1 -1 -1 -1 -1 -1
1 1 1 1 1 1 1 1 1 1 1 1 1 1 0 1 1 0 1 1 1 1 1 0 0 0 -0 -0 -0 -0 -1 -1 -2 -2 -2 -2 -2 -2 -3 -2 -2 -2 -2
Wind_Speed
4 4 4 4 4 5 5 5 6 6 6 6 6 6 6 5 5 5 5 7 7 8 9 9 10 11 11 11 12 12 12 11 11 11 11 10 10 9 9 9 9 9 9
4 4 4 4 4 5 5 5 6 6 5 5 5 5 5 5 5 5 5 6 6 6 7 9 10 10 11 12 12 11 11 11 11 10 10 9 9 9 9 9 9 9 8
5 4 4 4 4 5 6 6 6 5 5 5 5 5 4 4 4 5 4 4 5 5 5 7 9 10 11 11 11 11 11 11 10 10 9 9 8 8 8 8 8 7 7
5 4 4 4 5 5 5 5 5 5 5 5 4 4 3 3 3 4 4 3 3 4 5 5 7 9 10 11 10 10 11 10 10 9 8 8 7 7 7 6 6 5 5
6 5 4 4 5 4 4 5 5 5 5 5 4 3 2 2 2 3 3 3 3 3 4 6 7 8 9 10 10 10 10 9 9 9 8 7 7 6 5 5 4 4 4
6 5 4 5 5 4 4 5 6 5 5 5 4 3 2 1 1 2 3 3 3 4 4 5 6 7 8 9 9 9 9 9 9 8 7 7 6 5 4 3 3 3 2
6 5 4 5 5 4 5 5 5 6 4 5 4 2 1 1 1 1 2 3 4 3 4 4 5 6 6 7 7 8 9 9 9 8 7 6 6 5 4 3 2 1 1
6 5 5 5 5 4 5 6 6 5 3 4 4 3 2 2 2 2 2 3 3 3 4 4 4 5 5 5 5 7 8 8 8 8 7 7 6 5 4 3 2 1 0
5 5 6 6 6 6 6 6 7 7 5 4 4 3 3 4 2 3 4 4 4 3 4 4 4 5 5 5 5 6 7 7 8 8 7 7 6 5 4 3 3 2 1
5 5 5 6 6 5 6 6 6 5 7 6 3 2 2 1 3 3 3 4 4 4 4 4 4 5 5 6 6 6 7 7 7 7 7 7 7 6 5 5 4 3 2
4 4 5 5 5 5 6 6 6 6 6 6 5 3 2 1 2 3 3 4 4 4 4 4 4 5 5 5 6 6 7 7 8 8 7 7 7 7 6 6 5 4 4
4 5 5 6 6 6 6 7 6 7 6 6 6 5 4 3 4 3 3 4 4 4 4 4 4 5 5 6 5 5 7 8 8 8 8 8 7 7 7 7 7 6 6
4 5 5 6 6 6 6 6 6 7 7 7 7 6 5 4 3 3 4 3 3 3 4 4 5 5 5 6 6 8 7 7 8 8 8 8 7 6 7 8 8 7 7
4 5 6 7 7 7 6 6 6 6 6 7 7 7 5 5 4 4 4 4 4 3 4 5 4 6 6 6 7 8 7 8 8 8 9 8 7 7 7 8 9 9 9
4 5 5 6 6 6 7 7 6 7 6 7 7 7 6 5 4 4 4 5 5 5 5 5 5 6 6 6 7 7 7 8 9 8 8 8 8 9 9 9 10 9 9
4 5 5 6 6 6 7 7 6 7 7 7 6 7 7 5 5 4 4 4 5 5 4 3 4 4 6 6 6 7 7 8 9 9 8 8 9 10 9 8 9 9 9
4 5 5 5 6 6 7 7 7 7 8 8 7 7 7 6 5 5 4 4 4 4 5 3 2 4 6 6 5 6 6 7 7 9 9 8 9 9 9 9 9 9 9
4 4 4 5 5 5 6 7 7 7 8 8 7 7 7 6 7 5 5 5 5 5 5 5 3 4 6 6 5 6 6 6 6 8 9 9 10 10 10 10 10 10 10
3 3 4 4 4 5 5 6 7 7 7 8 7 8 8 7 7 6 6 6 5 4 4 5 4 3 3 4 5 5 6 6 6 7 9 10 11 11 11 11 11 11 12
3 3 3 4 4 4 4 5 5 6 6 6 6 7 7 8 8 8 6 7 6 5 5 5 5 4 4 4 4 5 5 5 5 6 7 8 10 11 12 12 12 13 13
2 2 2 2 3 3 3 4 4 5 5 5 5 5 6 6 7 7 6 7 7 6 5 5 5 5 5 5 5 5 5 5 5 5 5 6 7 8 9 12 13 13 13
2 2 2 3 3 3 3 4 4 4 5 5 5 5 5 6 7 8 9 9 9 9 8 7 7 7 8 7 6 5 5 4 4 4 5 6 6 7 8 9 11 12 13
1 2 2 2 3 3 3 5 5 4 5 5 5 5 4 5 7 6 8 8 9 10 10 9 9 9 8 7 7 7 7 6 6 3 4 6 6 7 7 9 11 13 13
1 2 2 2 2 2 3 4 5 4 4 4 5 6 6 6 6 7 6 7 7 8 9 8 8 8 7 7 7 7 7 6 5 4 5 5 5 6 6 8 10 12 13
2 2 2 3 3 3 3 4 4 3 3 4 5 5 6 6 7 8 7 7 6 6 6 7 7 6 7 8 7 5 5 5 5 5 4 4 4 5 5 6 8 10 12
2 2 2 2 3 3 3 5 5 3 4 4 4 4 5 6 7 8 7 7 7 6 5 5 5 6 7 8 10 8 7 6 4 4 4 4 4 3 4 4 5 6 8
Wind_Direction
173 173 172 167 165 161 161 160 158 152 151 149 147 147 142 139 137 129 120 120 134 145 151 150 149 145 142 139 134 130 126 122 118 114 111 106 103 100 97 96 92 85 79
172 171 172 167 162 161 163 165 159 156 153 149 146 144 142 141 139 135 131 125 127 142 155 159 155 152 147 143 141 137 132 129 124 119 114 111 106 102 99 96 91 85 79
176 174 173 170 161 159 156 155 154 151 149 149 148 143 137 142 144 142 141 143 141 137 151 165 163 157 152 150 147 143 139 135 130 126 121 116 112 107 103 97 91 87 80
173 174 173 172 164 159 156 156 159 159 158 156 149 143 139 133 145 144 144 150 150 154 144 148 162 162 157 155 154 150 147 142 138 134 130 125 122 118 113 106 98 89 79
178 176 174 164 161 163 163 162 162 163 161 153 141 134 132 134 147 150 152 151 152 161 160 139 145 157 161 161 160 158 155 151 148 146 142 138 134 130 123 116 107 95 80
182 177 170 165 165 167 167 167 158 153 157 150 134 117 106 121 149 167 171 160 159 168 170 166 158 147 152 161 164 165 163 162 158 155 153 151 147 142 137 131 118 102 81
184 181 175 175 178 179 178 173 159 152 154 154 140 126 104 122 174 187 189 179 170 171 169 172 172 162 158 158 167 172 171 171 167 165 164 164 161 161 164 158 147 119 84
191 191 186 185 182 181 182 177 169 166 164 176 171 163 180 202 209 214 206 202 190 173 171 173 174 169 171 173 170 177 180 179 176 175 176 178 176 180 180 180 181 179 207
193 194 194 192 188 183 189 190 188 182 175 187 201 196 193 205 185 199 209 205 199 188 179 176 176 172 180 182 179 178 186 189 190 189 189 190 192 194 198 202 206 219 224
200 198 195 196 194 193 196 198 198 198 183 184 195 240 252 197 186 178 195 203 201 201 195 185 191 187 184 189 185 178 178 191 200 202 202 203 206 209 212 217 220 223 234
205 206 201 198 199 201 200 201 199 202 198 195 193 194 203 207 220 202 199 192 196 205 203 201 202 199 193 192 193 187 185 196 204 211 215 214 217 222 222 225 227 234 245
210 214 211 204 205 207 204 205 202 205 207 207 203 202 203 203 208 211 213 201 206 200 195 198 205 204 196 194 196 185 190 199 208 217 222 222 224 231 230 230 230 237 248
213 216 215 212 210 212 208 208 207 211 213 213 212 212 215 222 218 216 209 209 221 214 204 205 203 202 199 199 198 191 198 203 210 219 225 225 225 236 241 234 233 240 249
220 217 219 219 214 209 206 207 211 213 214 216 220 218 218 219 212 211 210 201 210 219 215 210 196 200 197 196 193 192 203 209 210 217 224 226 228 231 241 241 239 242 248
225 218 218 217 213 207 204 204 211 212 214 218 221 220 220 218 214 215 215 212 212 221 225 211 198 195 195 198 193 198 208 210 215 219 226 228 231 234 235 241 240 242 247
221 213 212 213 210 205 203 205 213 213 215 218 218 218 219 217 214 212 215 221 227 228 230 215 207 190 190 196 198 207 214 216 217 220 222 224 230 230 230 234 238 241 245
219 215 211 210 209 208 208 210 213 209 214 215 213 214 216 213 210 210 210 213 218 219 225 229 215 198 200 202 200 211 218 223 224 218 220 224 229 229 229 231 236 241 246
223 220 214 209 209 211 211 212 214 212 213 214 213 210 212 207 210 208 207 210 212 212 214 219 219 211 210 206 208 214 218 224 230 224 224 229 231 232 231 234 238 243 247
224 222 218 216 215 214 214 217 216 215 217 218 214 213 210 205 209 209 207 208 209 211 213 212 218 221 219 210 214 222 225 226 232 230 230 230 231 234 237 238 240 244 247
223 221 218 216 216 216 216 216 215 214 215 217 216 216 214 211 213 208 206 208 204 203 204 205 210 214 215 209 213 220 226 225 231 233 235 237 236 235 238 240 241 243 245
223 214 210 209 210 213 217 213 213 214 210 210 213 217 219 216 216 210 206 206 202 204 204 207 213 216 216 208 215 216 226 231 236 230 238 240 239 239 240 239 240 240 242
225 210 206 208 214 218 199 201 210 211 211 212 214 216 216 213 213 211 214 214 210 209 208 213 219 220 226 222 217 215 220 233 240 215 232 245 239 245 246 244 242 243 246
223 226 226 221 227 224 197 201 210 212 212 215 216 216 218 218 215 218 217 215 222 225 224 224 226 230 230 225 216 219 225 234 245 234 231 251 244 249 254 250 246 247 250
242 241 238 233 236 236 203 207 212 219 219 219 222 222 222 222 220 216 217 221 227 229 228 230 236 238 236 229 223 224 230 241 257 246 228 250 253 257 262 258 249 249 251
261 256 248 239 238 239 212 213 216 223 225 227 230 230 227 226 215 207 212 219 226 233 232 231 239 241 234 227 222 213 211 221 246 249 227 240 258 266 265 258 255 251 252
261 260 261 259 252 255 229 218 221 222 227 231 233 233 229 228 216 208 216 219 225 231 226 224 226 230 230 225 221 221 216 221 238 246 221 221 245 262 269 259 259 260 259
Height
1518 1519 1521 1522 1523 1525 1526 1528 1529 1531 1532 1534 1536 1537 1539 1540 1542 1543 1544 1545 1546 1548 1549 1550 1550 1551 1552 1553 1554 1554 1555 1556 1556 1557 1557 1558 1558 1558 1558 1558 1558 1558 1558
1515 1517 1518 1520 1521 1523 1524 1526 1528 1529 1531 1533 1534 1536 1537 1539 1540 1541 1543 1544 1545 1546 1548 1549 1550 1551 1551 1552 1553 1554 1555 1555 1556 1557 1557 1557 1558 1558 1558 1558 1558 1558 1558
1513 1515 1516 1518 1519 1520 1522 1524 1526 1528 1529 1531 1532 1534 1536 1537 1538 1540 1541 1543 1544 1545 1546 1548 1549 1550 1551 1552 1552 1553 1554 1555 1555 1556 1556 1557 1557 1557 1558 1558 1558 1557 1557
1511 1513 1514 1515 1517 1518 1520 1522 1524 1526 1527 1529 1530 1532 1534 1535 1537 1538 1540 1541 1542 1544 1545 1546 1547 1548 1549 1550 1551 1552 1553 1554 1554 1555 1556 1556 1556 1557 1557 1557 1557 1557 1556
1509 1511 1512 1513 1515 1516 1518 1520 1522 1523 1525 1526 1528 1530 1532 1533 1535 1536 1538 1539 1540 1542 1543 1544 1545 1547 1548 1549 1550 1551 1552 1552 1553 1554 1554 1555 1555 1556 1556 1556 1556 1556 1555
1507 1508 1510 1511 1512 1514 1516 1517 1519 1521 1523 1524 1526 1528 1530 1531 1533 1534 1535 1537 1538 1539 1540 1542 1543 1545 1546 1547 1548 1549 1550 1551 1551 1552 1553 1553 1554 1554 1554 1555 1555 1554 1554
1505 1506 1507 1509 1510 1512 1514 1516 1517 1519 1521 1523 1525 1526 1528 1529 1530 1532 1533 1534 1535 1536 1538 1540 1541 1542 1543 1544 1546 1547 1548 1549 1549 1550 1551 1552 1552 1552 1553 1553 1553 1553 1552
1502 1504 1505 1506 1508 1509 1511 1513 1515 1516 1518 1520 1522 1524 1526 1529 1528 1529 1529 1531 1532 1534 1535 1536 1538 1540 1541 1542 1543 1544 1545 1546 1547 1548 1549 1549 1550 1550 1550 1551 1551 1551 1550
1499 1501 1502 1503 1505 1506 1508 1510 1512 1514 1515 1518 1520 1522 1524 1524 1525 1526 1526 1528 1529 1530 1532 1533 1534 1536 1538 1539 1540 1541 1542 1544 1545 1545 1546 1547 1547 1547 1548 1548 1548 1548 1548
1496 1498 1499 1500 1502 1503 1505 1507 1509 1511 1513 1514 1516 1518 1520 1520 1522 1522 1524 1525 1526 1527 1529 1530 1531 1533 1534 1536 1537 1538 1539 1541 1542 1543 1543 1544 1544 1545 1545 1545 1545 1545 1545
1493 1494 1496 1497 1498 1500 1502 1504 1506 1508 1509 1511 1513 1515 1516 1517 1518 1520 1520 1522 1523 1524 1525 1526 1528 1529 1530 1532 1533 1534 1536 1537 1538 1539 1540 1540 1541 1542 1542 1542 1542 1542 1542
1490 1491 1492 1494 1495 1497 1498 1500 1502 1504 1506 1508 1509 1511 1513 1514 1515 1516 1517 1518 1520 1521 1522 1523 1524 1526 1527 1528 1529 1530 1532 1533 1535 1536 1536 1537 1538 1538 1538 1538 1538 1538 1538
1486 1488 1489 1491 1492 1493 1495 1497 1499 1500 1502 1504 1506 1507 1509 1511 1512 1513 1514 1515 1516 1517 1518 1519 1520 1522 1523 1524 1525 1527 1528 1529 1531 1532 1532 1533 1533 1534 1534 1534 1534 1534 1534
1483 1485 1486 1487 1489 1490 1491 1493 1495 1496 1498 1500 1502 1504 1505 1507 1508 1509 1511 1512 1513 1514 1514 1515 1516 1518 1519 1520 1521 1523 1523 1525 1526 1527 1528 1529 1529 1530 1530 1530 1530 1530 1530
1480 1481 1482 1483 1485 1486 1488 1489 1491 1493 1495 1496 1498 1500 1501 1502 1504 1505 1507 1509 1510 1510 1510 1511 1512 1513 1515 1516 1517 1518 1519 1520 1521 1522 1523 1524 1524 1525 1525 1525 1525 1525 1525
1476 1477 1478 1480 1481 1482 1484 1485 1487 1489 1491 1492 1494 1495 1497 1498 1499 1501 1503 1504 1506 1507 1506 1506 1507 1509 1510 1511 1512 1513 1514 1515 1516 1517 1518 1518 1519 1520 1520 1520 1521 1521 1520
1473 1474 1475 1476 1477 1478 1480 1481 1483 1484 1486 1487 1489 1491 1492 1494 1495 1496 1498 1499 1501 1502 1502 1502 1503 1505 1506 1507 1508 1509 1510 1511 1512 1513 1513 1513 1514 1514 1514 1515 1515 1515 1515
1470 1470 1471 1472 1473 1474 1476 1477 1478 1480 1481 1483 1485 1486 1488 1489 1490 1492 1493 1495 1496 1497 1498 1498 1499 1500 1501 1502 1503 1504 1505 1506 1507 1508 1508 1509 1509 1509 1509 1509 1510 1510 1509
1466 1467 1468 1468 1470 1471 1472 1473 1474 1476 1477 1479 1480 1481 1483 1484 1486 1487 1489 1490 1491 1492 1493 1494 1494 1495 1496 1498 1499 1500 1500 1501 1502 1503 1503 1503 1504 1504 1504 1504 1504 1504 1504
1463 1464 1464 1465 1466 1467 1468 1469 1470 1471 1473 1474 1475 1477 1478 1480 1481 1483 1484 1485 1486 1487 1488 1489 1490 1491 1492 1493 1494 1495 1496 1496 1497 1497 1498 1498 1498 1498 1498 1498 1498 1498 1497
1460 1460 1461 1461 1462 1463 1464 1465 1466 1467 1468 1469 1471 1472 1474 1475 1477 1478 1479 1480 1482 1483 1483 1484 1485 1486 1487 1488 1489 1490 1491 1491 1491 1492 1492 1493 1493 1492 1492 1491 1491 1491 1491
1457 1457 1457 1458 1458 1459 1460 1461 1462 1463 1464 1465 1466 1467 1469 1470 1472 1473 1475 1476 1477 1478 1479 1480 1480 1481 1482 1483 1484 1485 1486 1486 1486 1487 1487 1487 1487 1486 1485 1485 1485 1485 1485
1453 1453 1454 1455 1455 1456 1457 1458 1459 1459 1460 1461 1462 1463 1464 1465 1467 1468 1469 1470 1471 1472 1474 1475 1475 1476 1477 1478 1479 1479 1480 1480 1480 1481 1481 1480 1480 1479 1479 1479 1479 1479 1478
1450 1450 1451 1451 1452 1452 1453 1454 1455 1455 1456 1456 1458 1459 1460 1461 1462 1463 1464 1465 1465 1467 1468 1470 1470 1471 1472 1473 1474 1474 1475 1475 1475 1475 1475 1474 1474 1473 1473 1473 1473 1472 1472
1447 1447 1448 1448 1448 1449 1449 1450 1451 1451 1452 1452 1453 1454 1455 1456 1457 1459 1460 1460 1461 1462 1463 1464 1464 1465 1466 1467 1468 1469 1469 1469 1468 1469 1469 1469 1468 1467 1467 1466 1466 1466 1465
1445 1445 1445 1445 1445 1445 1446 1446 1447 1447 1448 1448 1449 1450 1451 1452 1453 1453 1455 1455 1455 1456 1457 1458 1459 1459 1460 1461 1462 1462 1462 1463 1462 1462 1463 1463 1462 1462 1460 1460 1460 1459 1459